IRIDIUM 53 [-] (25173 NORAD) Tracking and Keplerian Element Data

This shows tracking and keplerian element data for the satellite.

Feedback or suggestion? Click here.




ElementValue
Catalog25173
NameIRIDIUM 53 [-]
Epoch Orbit7939
Epoch Day273.53785714
Epoch Year2018
RAAN152.9558
Inclination86.759
Eccentricity0.0046636
Argument of Perigee110.0323
Mean Anonmoly251.7763
Mean Motion16.49210048
Decay Rate0.34707118
L11 25173U 98010E 18273.53785714 .34707118 -17741-5 23581-3 0 9996
L22 25173 86.7590 152.9558 0046636 110.0323 251.7763 16.49210048 79399

Live tracking and technical data element details for IRIDIUM 53 [-] (NORAD 25173). IRIDIUM 53 [-] can be tracked NOW for your location showing map with azimuth and elevation plus other details from your city location.

Track the satellite on the map from your city or location and see movement details for azimuth, elevation, latitude, longitude, range, height, and movement on the map or in text.







IsCatalogInMostPopularTable: catalog: 25173, numindb: 48
Update: records affected: 1



GetName: 25173 IRIDIUM 53 [-]

Hit Count: updated at: Sat, 15 Dec 2018 17:56:12 GMT